EW0195 Weather Reports


Display with metric or nautical units.
time (UTC)temp
F
wind
direction
speed
MPH
gust
MPH
rain 1hr
in
rain 24hr
in
rain mn
in
humidity
%
barometer
mb
20260509082950 54 311 2.0 5.0 0.00 0.00 0.00 82 1011.1
20260509081451 54 313 3.0 5.0 0.00 0.00 0.00 81 1011.2
20260509075954 54 304 3.0 7.0 0.00 0.00 0.00 81 1011.2
20260509074451 53 318 3.0 7.0 0.00 0.00 0.00 82 1011.2
20260509072951 53 297 4.0 10.0 0.00 0.00 0.00 82 1011.2
20260509071451 52 228 4.0 8.0 0.00 0.00 0.00 81 1011.2
20260509065955 52 273 3.0 8.0 0.00 0.00 0.00 81 1011.3
20260509064451 52 268 1.0 4.0 0.00 0.00 0.00 79 1011.5
20260509061450 53 249 1.0 3.0 0.00 0.00 0.00 76 1011.8
20260509055954 53 271 1.0 4.0 0.00 0.00 0.00 75 1012.0
20260509054450 53 218 1.0 3.0 0.00 0.00 0.00 73 1012.0
20260509052951 54 254 1.0 4.0 0.00 0.00 0.00 72 1012.2
20260509051452 55 257 0.0 3.0 0.00 0.00 0.00 70 1012.3
20260509045955 56 268 1.0 3.0 0.00 0.00 0.00 69 1012.4
20260509042951 57 278 4.0 8.0 0.00 0.00 0.00 68 1012.5
20260509041452 56 271 2.0 5.0 0.00 0.00 0.00 70 1012.5
20260509034452 57 240 0.0 2.0 0.00 0.00 0.00 69 1012.4
20260509032952 58 279 0.0 1.0 0.00 0.00 0.00 68 1012.4
20260509031451 59 338 0.0 1.0 0.00 0.00 0.00 66 1012.7
20260509025954 59 280 1.0 2.0 0.00 0.00 0.00 66 1012.8
20260509024451 59 311 3.0 8.0 0.00 0.00 0.00 65 1012.7
20260509021451 59 306 2.0 6.0 0.00 0.00 0.00 65 1012.5
20260509015955 60 309 2.0 5.0 0.00 0.00 0.00 64 1012.5
20260509014451 60 296 3.0 6.0 0.00 0.00 0.00 64 1012.6
20260509012951 60 313 3.0 6.0 0.00 0.00 0.00 63 1012.5
20260509011451 60 312 2.0 7.0 0.00 0.00 0.00 63 1012.3
20260509005954 60 295 2.0 4.0 0.00 0.00 0.00 62 1012.1
20260509004451 61 307 3.0 8.0 0.00 0.00 0.00 62 1011.8
20260509002951 61 312 3.0 7.0 0.00 0.00 0.00 61 1011.7
20260509001450 61 304 3.0 7.0 0.00 0.00 0.00 59 1011.3
20260508235955 62 290 3.0 6.0 0.00 0.00 0.00 57 1011.3
20260508234451 62 320 2.0 5.0 0.00 0.00 0.00 54 1011.3
20260508232950 63 305 2.0 5.0 0.00 0.00 0.00 51 1011.0
20260508231450 64 326 2.0 6.0 0.00 0.00 0.00 47 1011.0
20260508225955 64 304 1.0 4.0 0.00 0.00 0.00 44 1010.8
20260508224451 65 289 3.0 5.0 0.00 0.00 0.00 42 1010.6
20260508222951 65 312 3.0 8.0 0.00 0.00 0.00 41 1010.7
20260508221450 65 303 3.0 8.0 0.00 0.00 0.00 40 1010.6
20260508215954 65 352 4.0 8.0 0.00 0.00 0.00 40 1010.6
20260508214451 65 351 4.0 13.0 0.00 0.00 0.00 39 1010.6
20260508212950 65 297 5.0 9.0 0.00 0.00 0.00 39 1010.5
20260508211450 65 311 5.0 10.0 0.00 0.00 0.00 40 1010.5
20260508205954 66 283 5.0 12.0 0.00 0.00 0.00 38 1010.5
20260508202951 67 321 5.0 11.0 0.00 0.00 0.00 40 1010.6
20260508201450 65 323 6.0 11.0 0.00 0.00 0.00 42 1010.9
20260508195954 65 332 5.0 9.0 0.00 0.00 0.00 42 1011.0
20260508194450 67 351 5.0 11.0 0.00 0.00 0.00 40 1011.1
20260508192951 66 323 4.0 14.0 0.00 0.00 0.00 40 1011.2
20260508191450 64 311 6.0 16.0 0.00 0.00 0.00 44 1011.5
20260508185953 66 314 6.0 14.0 0.00 0.00 0.00 46 1011.6
20260508184451 64 304 5.0 11.0 0.00 0.00 0.00 45 1011.7
20260508182952 63 335 7.0 15.0 0.00 0.00 0.00 43 1011.8
20260508181450 64 13 7.0 15.0 0.00 0.00 0.00 43 1012.0
20260508174450 64 329 5.0 12.0 0.00 0.00 0.00 42 1012.2
20260508172952 63 337 7.0 20.0 0.00 0.00 0.00 43 1012.3
20260508164451 64 11 4.0 12.0 0.00 0.00 0.00 47 1012.4
20260508162951 62 4 5.0 9.0 0.00 0.00 0.00 46 1012.6
20260508161451 61 342 4.0 15.0 0.00 0.00 0.00 44 1012.9
20260508155955 60 14 6.0 14.0 0.00 0.00 0.00 45 1013.2
20260508154452 60 333 5.0 12.0 0.00 0.00 0.00 47 1013.6
20260508152952 60 335 6.0 11.0 0.00 0.00 0.00 47 1013.6
20260508151450 59 331 6.0 13.0 0.00 0.00 0.00 48 1013.7
20260508144452 57 336 5.0 13.0 0.00 0.00 0.00 46 1014.0
20260508142951 57 295 4.0 9.0 0.00 0.00 0.00 53 1014.0
20260508141450 55 340 4.0 8.0 0.00 0.00 0.00 54 1014.2
20260508135954 55 347 3.0 7.0 0.00 0.00 0.00 51 1014.1
20260508134450 56 309 3.0 11.0 0.00 0.00 0.00 49 1014.2
20260508132950 55 309 4.0 8.0 0.00 0.00 0.00 57 1014.4
20260508131451 54 318 2.0 7.0 0.00 0.00 0.00 59 1014.5
20260508125954 54 298 3.0 8.0 0.00 0.00 0.00 61 1014.5
20260508124450 53 314 2.0 6.0 0.00 0.00 0.00 65 1014.5
20260508122951 52 316 0.0 0.0 0.00 0.00 0.00 69 1014.5
20260508115954 50 340 0.0 5.0 0.00 0.00 0.00 76 1014.2
20260508114451 49 68 0.0 1.0 0.00 0.00 0.00 80 1014.3
20260508112950 47 11 0.0 1.0 0.00 0.00 0.00 82 1014.1
20260508111451 46 71 0.0 0.0 0.00 0.00 0.00 84 1013.9
20260508105954 44 71 0.0 0.0 0.00 0.00 0.00 86 1013.9
20260508104450 43 71 0.0 0.0 0.00 0.00 0.00 86 1013.6
20260508102951 42 71 0.0 0.0 0.00 0.00 0.00 85 1013.5
20260508101450 42 71 0.0 0.0 0.00 0.00 0.00 84 1013.5
20260508095953 42 71 0.0 0.0 0.00 0.00 0.00 82 1013.3
20260508094450 44 71 0.0 0.0 0.00 0.00 0.00 82 1013.0
20260508092950 44 71 0.0 1.0 0.00 0.00 0.00 82 1013.0
20260508085954 44 66 0.0 1.0 0.00 0.00 0.00 80 1013.1
20260508084451 45 68 0.0 1.0 0.00 0.00 0.00 78 1013.0